This is the latest recevied weather packets stored in our database for station/object KPBF. If no packets are shown the sender has not sent any weather packets the latest 1 day(s).
| Time | Temp. | Humidity | Pressure | Rain* | Wind** | Luminosity | Snow |
|---|---|---|---|---|---|---|---|
| 1778070816 | 12.78° C | 87% | 1012.9 hPa | - | - | - | - |
| 1778069017 | 12.78° C | 87% | 1012.5 hPa | - | - | - | - |
| 1778068418 | 11.67° C | 93% | 1012.2 hPa | - | - | - | - |
| 1778064817 | 12.78° C | 87% | 1010.8 hPa | - | - | - | - |
| 1778063617 | 12.78° C | 87% | 1010.8 hPa | - | - | - | - |
| 1778062418 | 12.78° C | 87% | 1010.8 hPa | - | - | - | - |
| 1778061220 | 12.78° C | 87% | 1010.8 hPa | - | - | - | - |
| 1778060019 | 12.78° C | 87% | 1010.8 hPa | - | - | - | - |
| 1778059417 | 15° C | 82% | 1010.5 hPa | - | - | - | - |
| 1778058818 | 15° C | 82% | 1010.5 hPa | - | - | - | - |
| 1778057620 | 16.67° C | 82% | 1008.8 hPa | - | - | - | - |
| 1778056418 | 25° C | 78% | 1006.8 hPa | - | - | - | - |
| 1778055215 | 25° C | 78% | 1006.8 hPa | - | - | - | - |
| 1778054616 | 25° C | 78% | 1006.8 hPa | - | - | - | - |
| 1778053418 | 23.89° C | 83% | 1006.4 hPa | - | - | - | - |
| 1778052817 | 23.89° C | 83% | 1006.4 hPa | - | - | - | - |
| 1778052217 | 23.89° C | 83% | 1006.4 hPa | - | - | - | - |
| 1778051618 | 23.89° C | 83% | 1006.4 hPa | - | - | - | - |
| 1778051018 | 23.89° C | 83% | 1006.4 hPa | - | - | - | - |
| 1778050414 | 23.89° C | 83% | 1006.8 hPa | - | - | - | - |
| 1778049815 | 23.89° C | 83% | 1006.8 hPa | - | - | - | - |
| 1778048617 | 23.89° C | 83% | 1006.8 hPa | - | - | - | - |
| 1778046222 | 23.89° C | 83% | 1006.8 hPa | - | - | - | - |
| 1778045615 | 23.89° C | 83% | 1006.8 hPa | - | - | - | - |
| 1778045017 | 23.89° C | 83% | 1006.8 hPa | - | - | - | - |
* Rain since midnight (hover to see other rain measurements)
** Current wind speed in m/s (hover to see current wind gust speed)